Longmont, CO

10:32 PM MDT on August 28, 2016 (GMT -0600)
Lemoore (Abandoned) Willett A

Weather History for KLMO - January, 2014

Change the Weather History Date:

Wednesday, January 1, 2014

  Actual Average (KBDU) Record (KBDU)
Temperature  
Mean Temperature 32 °F -  
Max Temperature 46 °F - 42 °F (2014)
Min Temperature 18 °F - 6 °F (2015)
Degree Days  
Heating Degree Days 33    
Month to date heating degree days  
Cooling Degree Days 0    
Month to date cooling degree days  
Moisture  
Dew Point 25 °F    
Average Humidity 71    
Maximum Humidity 91    
Minimum Humidity 45    
Precipitation  
Precipitation 0.00 in - 0.00 in (2016)
Sea Level Pressure  
Sea Level Pressure 30.14 in    
Wind  
Wind Speed 5 mph (ENE)    
Max Wind Speed 17 mph    
Max Gust Speed 26 mph    
Visibility 10 miles    
Events Snow    
T = Trace of Precipitation, MM = Missing Value Source: NWS Daily Summary

Daily Weather History Graph

Daily Weather History Graph

Search for Another Location

Airport or City:

Trip Planner

Search our weather history database for the weather conditions in past years. The results will help you decide how hot, cold, wet, or windy it might be!

Date:

Astronomy

Jan. 01, 2014 Rise Set
Actual Time 7:23 AM MST 4:45 PM MST
Civil Twilight 6:52 AM MST 5:16 PM MST
Nautical Twilight 6:18 AM MST 5:50 PM MST
Astronomical Twilight 5:45 AM MST 6:23 PM MST
Moon 7:15 AM MST (1/1) 5:33 PM MST (1/1)
Length of Visible Light 10h 23m
Length of Day
9h 22m
New Moon, 0% of the Moon is Illuminated
Jan 1
New Moon
Jan 7
First Quarter
Jan 15
Full
Jan 23
Last Quarter
Jan 30
New

Hourly Weather History & Observations

Time (MST) Temp. Windchill Dew Point Humidity Pressure Visibility Wind Dir Wind Speed Gust Speed Precip Events Conditions
12:12 AM 41.5 °F 39.6 °F 21.9 °F 46% 29.91 in 10.0 mi WNW 3.5 mph - N/A   Scattered Clouds
12:32 AM 39.2 °F - 21.9 °F 50% 29.91 in 10.0 mi Calm Calm - N/A   Scattered Clouds
12:52 AM 41.4 °F - 21.2 °F 45% 29.90 in 10.0 mi Calm Calm - N/A   Clear
1:12 AM 37.6 °F 31.6 °F 22.5 °F 54% 29.90 in 10.0 mi ENE 8.1 mph - N/A   Scattered Clouds
1:32 AM 37.2 °F 32.6 °F 22.1 °F 54% 29.89 in 10.0 mi NNE 5.8 mph - N/A   Scattered Clouds
1:52 AM 34.7 °F 29.6 °F 21.9 °F 60% 29.91 in 10.0 mi WNW 5.8 mph - N/A   Scattered Clouds
2:12 AM 38.3 °F - 22.1 °F 52% 29.91 in 10.0 mi Calm Calm - N/A   Scattered Clouds
2:32 AM 37.0 °F - 21.2 °F 53% 29.91 in 10.0 mi Calm Calm - N/A   Clear
2:52 AM 35.1 °F 32.2 °F 21.6 °F 58% 29.92 in 10.0 mi West 3.5 mph - N/A   Clear
3:12 AM 43.2 °F 36.2 °F 24.1 °F 47% 29.92 in 10.0 mi WSW 13.8 mph 18.4 mph N/A   Clear
3:32 AM 46.0 °F 41.4 °F 25.5 °F 45% 29.90 in 10.0 mi SW 9.2 mph - N/A   Clear
3:52 AM 42.8 °F - 24.3 °F 48% 29.91 in 10.0 mi Calm Calm - N/A   Clear
4:12 AM 40.5 °F 35.8 °F 25.0 °F 54% 29.91 in 10.0 mi North 6.9 mph - N/A   Clear
4:32 AM 36.9 °F 32.2 °F 23.0 °F 57% 29.94 in 10.0 mi East 5.8 mph 16.1 mph N/A   Clear
4:52 AM 39.9 °F 37.8 °F 22.3 °F 49% 29.94 in 10.0 mi NE 3.5 mph - N/A   Clear
5:12 AM 36.7 °F - 22.6 °F 57% 29.96 in 10.0 mi Calm Calm - N/A   Clear
5:32 AM 37.2 °F 30.6 °F 23.0 °F 56% 29.99 in 10.0 mi ENE 9.2 mph - N/A   Mostly Cloudy
5:52 AM 37.8 °F 33.3 °F 23.0 °F 55% 30.00 in 10.0 mi East 5.8 mph - N/A   Overcast
6:12 AM 37.8 °F 35.3 °F 23.0 °F 55% 30.00 in 10.0 mi East 3.5 mph - N/A   Overcast
6:32 AM 37.0 °F 34.5 °F 23.0 °F 57% 30.03 in 10.0 mi NE 3.5 mph - N/A   Overcast
6:52 AM 36.9 °F 33.1 °F 23.9 °F 59% 30.05 in 10.0 mi ESE 4.6 mph - N/A   Overcast
7:12 AM 37.6 °F 28.4 °F 26.2 °F 64% 30.08 in 10.0 mi NE 16.1 mph 19.6 mph N/A   Overcast
7:32 AM 35.6 °F 28.0 °F 30.4 °F 81% 30.09 in 10.0 mi NE 10.4 mph 19.6 mph N/A   Mostly Cloudy
7:52 AM 35.6 °F 31.7 °F 30.9 °F 83% 30.11 in 10.0 mi NE 4.6 mph - N/A   Overcast
8:12 AM 35.8 °F 31.9 °F 31.1 °F 83% 30.12 in 10.0 mi East 4.6 mph - N/A   Overcast
8:32 AM 36.0 °F 32.1 °F 31.1 °F 82% 30.13 in 10.0 mi East 4.6 mph - N/A   Overcast
8:52 AM 36.5 °F 32.7 °F 31.1 °F 81% 30.14 in 10.0 mi East 4.6 mph - N/A   Overcast
9:12 AM 36.9 °F - 31.1 °F 80% 30.16 in 10.0 mi Calm Calm - N/A   Overcast
9:32 AM 37.0 °F 34.5 °F 31.6 °F 81% 30.17 in 10.0 mi East 3.5 mph - N/A   Overcast
9:52 AM 37.6 °F - 31.8 °F 80% 30.17 in 10.0 mi Calm Calm - N/A   Overcast
10:12 AM 39.4 °F 34.5 °F 31.8 °F 74% 30.17 in 10.0 mi ENE 6.9 mph - N/A   Overcast
10:32 AM 37.8 °F 33.3 °F 31.3 °F 77% 30.17 in 10.0 mi ENE 5.8 mph - N/A   Mostly Cloudy
10:52 AM 38.7 °F 34.3 °F 31.3 °F 75% 30.18 in 10.0 mi ENE 5.8 mph - N/A   Overcast
11:12 AM 38.8 °F 33.2 °F 30.7 °F 73% 30.18 in 10.0 mi East 8.1 mph - N/A   Overcast
11:32 AM 39.6 °F 34.7 °F 30.6 °F 70% 30.17 in 10.0 mi East 6.9 mph - N/A   Mostly Cloudy
11:52 AM 39.4 °F 35.2 °F 30.7 °F 71% 30.16 in 10.0 mi ESE 5.8 mph - N/A   Mostly Cloudy
12:12 PM 39.6 °F 36.3 °F 30.7 °F 71% 30.16 in 10.0 mi SSE 4.6 mph - N/A   Overcast
12:32 PM 42.3 °F 39.4 °F 30.2 °F 62% 30.16 in 10.0 mi SE 4.6 mph - N/A   Overcast
12:52 PM 43.9 °F 39.9 °F 30.2 °F 59% 30.16 in 10.0 mi ESE 6.9 mph - N/A   Mostly Cloudy
1:12 PM 41.9 °F 37.5 °F 29.8 °F 62% 30.15 in 10.0 mi SE 6.9 mph - N/A   Mostly Cloudy
1:32 PM 45.3 °F 43.0 °F 30.0 °F 55% 30.15 in 10.0 mi East 4.6 mph - N/A   Mostly Cloudy
1:52 PM 41.4 °F 35.2 °F 30.2 °F 65% 30.17 in 10.0 mi NE 10.4 mph - N/A   Mostly Cloudy
2:12 PM 39.4 °F 32.3 °F 31.5 °F 73% 30.18 in 10.0 mi ENE 11.5 mph - N/A   Overcast
2:32 PM 38.8 °F 33.8 °F 30.4 °F 72% 30.19 in 10.0 mi ENE 6.9 mph - N/A   Mostly Cloudy
2:52 PM 39.4 °F 32.7 °F 29.7 °F 68% 30.21 in 10.0 mi NE 10.4 mph - N/A   Overcast
3:12 PM 36.9 °F 27.8 °F 26.4 °F 66% 30.23 in 10.0 mi North 15.0 mph 23.0 mph N/A Snow Light Snow
3:32 PM 34.9 °F 24.9 °F 26.4 °F 71% 30.25 in 10.0 mi NE 16.1 mph 26.5 mph N/A Snow Light Snow
3:52 PM 33.8 °F 23.2 °F 25.9 °F 73% 30.26 in 10.0 mi NE 17.3 mph 21.9 mph N/A   Overcast
4:12 PM 33.4 °F 23.9 °F 24.1 °F 69% 30.27 in 10.0 mi NNE 13.8 mph 19.6 mph N/A   Mostly Cloudy
4:32 PM 32.0 °F 24.8 °F 23.9 °F 72% 30.28 in 10.0 mi NE 8.1 mph - N/A   Scattered Clouds
4:52 PM 31.1 °F - 23.7 °F 74% 30.29 in 10.0 mi Calm Calm - N/A   Scattered Clouds
5:12 PM 30.7 °F 27.3 °F 23.7 °F 75% 30.30 in 10.0 mi WSW 3.5 mph - N/A   Clear
5:32 PM 29.8 °F 24.9 °F 23.4 °F 77% 30.31 in 10.0 mi SW 4.6 mph - N/A   Clear
5:52 PM 28.4 °F 24.6 °F 22.1 °F 77% 30.31 in 10.0 mi SW 3.5 mph - N/A   Clear
6:12 PM 26.1 °F - 21.0 °F 81% 30.32 in 10.0 mi Calm Calm - N/A   Clear
6:32 PM 26.6 °F - 22.8 °F 86% 30.31 in 10.0 mi Calm Calm - N/A   Clear
6:52 PM 26.1 °F 21.9 °F 21.6 °F 83% 30.31 in 10.0 mi SSW 3.5 mph - N/A   Clear
7:12 PM 25.9 °F - 22.1 °F 86% 30.30 in 10.0 mi Calm Calm - N/A   Clear
7:32 PM 25.5 °F - 22.1 °F 87% 30.30 in 10.0 mi Calm Calm - N/A   Clear
7:52 PM 23.5 °F 19.1 °F 20.1 °F 87% 30.29 in 10.0 mi SSW 3.5 mph - N/A   Clear
8:12 PM 21.4 °F - 18.1 °F 87% 30.29 in 10.0 mi Calm Calm - N/A   Clear
8:32 PM 22.5 °F - 19.4 °F 88% 30.29 in 10.0 mi Calm Calm - N/A   Clear
8:52 PM 21.9 °F - 19.0 °F 89% 30.29 in 10.0 mi Calm Calm - N/A   Clear
9:12 PM 21.0 °F - 18.3 °F 89% 30.28 in 10.0 mi Calm Calm - N/A   Clear
9:32 PM 19.9 °F - 16.9 °F 88% 30.28 in 10.0 mi Calm Calm - N/A   Clear
9:52 PM 19.8 °F - 17.2 °F 90% 30.27 in 10.0 mi Calm Calm - N/A   Clear
10:12 PM 20.8 °F - 18.7 °F 91% 30.27 in 10.0 mi Calm Calm - N/A   Clear
10:32 PM 21.0 °F 16.2 °F 18.7 °F 91% 30.27 in 10.0 mi West 3.5 mph - N/A   Clear
10:52 PM 18.7 °F 11.9 °F 15.8 °F 89% 30.27 in 10.0 mi NW 4.6 mph - N/A   Clear
11:12 PM 19.0 °F - 16.3 °F 89% 30.26 in 10.0 mi Calm Calm - N/A   Clear
11:32 PM 18.5 °F - 16.2 °F 91% 30.25 in 10.0 mi Calm Calm - N/A   Clear
11:52 PM 19.0 °F 13.9 °F 16.5 °F 90% 30.24 in 10.0 mi NNW 3.5 mph - N/A   Clear